User: anonymous   Login
Location: Unspecified
(0.0000°N, 0.0000°E)
Time: 23:57:01
(UTC+00:00)
Language:

STARLINK-4442 - Orbit

View from above orbital plane
View from above orbital plane
View from above satellite
View from above satellite

Ground track
Ground track

The orbit is defined by the following mean orbital elements,

1 53480U          26145.66668980 +.00000000 +00000-0 +40353-2 0 00007
2 53480  97.6023 268.5339 0001299  92.5885 241.5523 15.35430193    09
Epoch (UTC): 25 May 2026 16:00:01
Eccentricity: 0.0001299
inclination: 97.6023°
perigee height: 459 km
apogee height: 461 km
right ascension of ascending node: 268.5339°
argument of perigee: 92.5885°
revolutions per day: 15.35430193
mean anomaly at epoch: 241.5523°

The dashed part of the orbit path shows where the satellite is in the earth's shadow,  

DLR